Weather History for Oxford, CT

Change the Weather History Date:

Saturday, February 16, 2013

  Actual Average Record
Temperature  
Mean Temperature 32 °F -  
Max Temperature 37 °F 35 °F 53 °F (2002)
Min Temperature 26 °F 20 °F 3 °F (2003)
Degree Days  
Heating Degree Days 34    
Moisture  
Dew Point 21 °F    
Average Humidity 68    
Maximum Humidity 86    
Minimum Humidity 48    
Precipitation  
Precipitation 0.00 in - - ()
Sea Level Pressure  
Sea Level Pressure 29.87 in    
Wind  
Wind Speed 10 mph (North)    
Max Wind Speed 15 mph    
Max Gust Speed 21 mph    
Visibility 7 miles    
Events Snow    
Averages and records for this station are not official NWS values.
T = Trace of Precipitation, MM = Missing Value Source: NWS Daily Summary

Daily Weather History Graph

Daily Weather History Graph

Search for Another Location

Airport:

Trip Planner

Search our weather history database for the weather conditions in past years. The results will help you decide how hot, cold, wet, or windy it might be!

Date:

Astronomy

Feb. 16, 2013 Rise Set
Actual Time 6:45 AM EST 5:27 PM EST
Civil Twilight 6:17 AM EST 5:56 PM EST
Nautical Twilight 5:45 AM EST 6:28 PM EST
Astronomical Twilight 5:13 AM EST 7:00 PM EST
Moon 9:51 AM EST (2/16) No Moon Set
Length of Visible Light 11h 38m
Length of Day
10h 41m
Waxing Crescent, 39% of the Moon is Illuminated
Feb 16
Waxing Crescent
Feb 17
First Quarter
Feb 25
Full
Mar 4
Last Quarter
Mar 11
New

Hourly Weather History & Observations

Time (EST) Temp. Windchill Dew Point Humidity Pressure Visibility Wind Dir Wind Speed Gust Speed Precip Events Conditions
12:15 AM 37.4 °F 32.1 °F 28.4 °F 70% 29.94 in 10.0 mi NW 6.9 mph - N/A   Overcast
12:35 AM 37.4 °F 30.8 °F 26.6 °F 65% 29.93 in 10.0 mi North 9.2 mph - N/A   Overcast
12:55 AM 37.4 °F 32.8 °F 26.6 °F 65% 29.93 in 10.0 mi NW 5.8 mph - N/A   Overcast
1:15 AM 37.4 °F 33.8 °F 26.6 °F 65% 29.95 in 8.0 mi NNW 4.6 mph - N/A   Overcast
1:35 AM 35.6 °F 29.9 °F 26.6 °F 70% 29.95 in 5.0 mi NNW 6.9 mph - N/A   Overcast
1:55 AM 33.8 °F 23.9 °F 26.6 °F 75% 29.95 in 2.5 mi North 15.0 mph - N/A   Overcast
2:15 AM 33.8 °F 25.8 °F 26.6 °F 75% 29.95 in 1.8 mi North 10.4 mph - N/A   Overcast
2:35 AM 32.0 °F 23.0 °F 26.6 °F 80% 29.94 in 2.5 mi North 11.5 mph - N/A   Mostly Cloudy
2:55 AM 32.0 °F 24.2 °F 26.6 °F 80% 29.93 in 3.0 mi North 9.2 mph - N/A   Overcast
3:15 AM 32.0 °F 23.6 °F 26.6 °F 80% 29.93 in 7.0 mi North 10.4 mph - N/A   Overcast
3:35 AM 32.0 °F 24.2 °F 26.6 °F 80% 29.93 in 3.0 mi NNE 9.2 mph - N/A   Overcast
3:55 AM 30.2 °F 20.8 °F 26.6 °F 86% 29.92 in 2.0 mi NNE 11.5 mph - N/A   Overcast
4:15 AM 30.2 °F 21.3 °F 26.6 °F 86% 29.92 in 1.5 mi NNE 10.4 mph - N/A   Overcast
4:35 AM 30.2 °F 21.3 °F 26.6 °F 86% 29.92 in 2.0 mi NNE 10.4 mph - N/A   Overcast
4:55 AM 30.2 °F 21.9 °F 26.6 °F 86% 29.92 in 3.0 mi NNE 9.2 mph - N/A   Overcast
5:15 AM 30.2 °F 21.3 °F 24.8 °F 80% 29.92 in 2.5 mi North 10.4 mph - N/A   Overcast
5:35 AM 30.2 °F 20.8 °F 24.8 °F 80% 29.91 in 9.0 mi NNE 11.5 mph - N/A   Overcast
5:55 AM 30.2 °F 19.8 °F 24.8 °F 80% 29.92 in 10.0 mi North 13.8 mph - N/A   Overcast
6:45 AM 30.2 °F 23.4 °F 23.0 °F 75% 29.93 in 7.0 mi NNE 6.9 mph - N/A Snow Light Snow
7:55 AM 28.4 °F 19.7 °F 21.2 °F 74% 29.93 in 2.0 mi NE 9.2 mph - N/A Snow Light Snow
8:13 AM 28.4 °F 19.7 °F 21.2 °F 74% 29.93 in 7.0 mi NE 9.2 mph - N/A   Overcast
9:45 AM 30.2 °F 21.3 °F 21.2 °F 69% 29.92 in 7.0 mi NNE 10.4 mph - N/A   Overcast
10:45 AM 30.2 °F 19.3 °F 19.4 °F 64% 29.91 in 10.0 mi North 15.0 mph - N/A   Mostly Cloudy
11:45 AM 30.2 °F 21.9 °F 17.6 °F 60% 29.90 in 10.0 mi North 9.2 mph - N/A   Mostly Cloudy
12:45 PM 30.2 °F 23.4 °F 17.6 °F 60% 29.88 in 10.0 mi NNE 6.9 mph - N/A   Mostly Cloudy
1:50 PM 33.8 °F 25.3 °F 15.8 °F 48% 29.86 in 10.0 mi NNE 11.5 mph - N/A   Mostly Cloudy
2:45 PM 33.8 °F 25.3 °F 15.8 °F 48% 29.84 in 10.0 mi NNE 11.5 mph - N/A   Mostly Cloudy
3:45 PM 33.8 °F 25.3 °F 15.8 °F 48% 29.82 in 10.0 mi NNE 11.5 mph - N/A   Mostly Cloudy
4:45 PM 32.0 °F 24.8 °F 14.0 °F 48% 29.83 in 10.0 mi NNW 8.1 mph - N/A   Overcast
5:45 PM 30.2 °F 20.8 °F 14.0 °F 51% 29.82 in 10.0 mi North 11.5 mph - N/A   Overcast
6:55 PM 30.2 °F 20.8 °F 14.0 °F 51% 29.81 in 10.0 mi North 11.5 mph - N/A   Overcast
7:45 PM 28.4 °F 17.5 °F 14.0 °F 55% 29.81 in 10.0 mi North 13.8 mph 20.7 mph N/A   Overcast
8:45 PM 28.4 °F 18.5 °F 12.2 °F 51% 29.80 in 10.0 mi North 11.5 mph - N/A   Overcast
9:35 PM 26.6 °F 16.8 °F 17.6 °F 69% 29.79 in 9.0 mi North 10.4 mph - N/A   Overcast
9:55 PM 26.6 °F 15.2 °F 17.6 °F 69% 29.77 in 5.0 mi North 13.8 mph - N/A   Overcast
10:15 PM 26.6 °F 15.2 °F 17.6 °F 69% 29.76 in 9.0 mi North 13.8 mph - N/A   Overcast
10:35 PM 26.6 °F 15.2 °F 17.6 °F 69% 29.75 in 7.0 mi North 13.8 mph - N/A   Overcast
10:55 PM 26.6 °F 14.7 °F 17.6 °F 69% 29.74 in 10.0 mi North 15.0 mph - N/A   Overcast
11:15 PM 26.6 °F 15.2 °F 15.8 °F 64% 29.71 in 10.0 mi North 13.8 mph - N/A   Overcast
11:35 PM 26.6 °F 15.2 °F 15.8 °F 64% 29.70 in 10.0 mi North 13.8 mph 17.3 mph N/A   Overcast